COSMOS 1371

Satellite information

Favourite Embed

Satellite Type and Status

PAYLOADIN ORBIT

Key statistics

Satellite COSMOS 1371 at a glance.

Uptime

15740

Days in orbit

Revolutions

≈ 14.3

Per day

Orbit

LEO

Low Earth Orbit

Inclination

74.0

Latest

Satellite identification and parameters

Extended collection of information and parameters for COSMOS 1371.

Object identification

Identified? True

Debris? False

Object name: COSMOS 1371

International designator: 1982-051A

Object number (NORAD): 13241

Object ID (CCSDS): 13241

Country: COMMONWEALTH OF INDEPENDENT STATES (CIS)

Current information (Y/N): Y

RCS size: LARGE

Orbital parameters

Period: 100.525 minutes

Inclination: 74.0418 deg

SMA: 7161.6 km

Apoapsis: 793.088 km

Periapsis: 773.841 km

RAAN: 162.1429 deg

Eccentricy: 0.0013438

Argument of periapsis: 345.0193 deg

Mean anomaly: 15.0558 deg

Mean motion: 14.32477138 rev/day

Mean motion (dot): 0.00000112 rev/day2

B* drag term: 0.000050812 1/REarth

Two-line elements (TLE)

Creation date: July 4, 2025, 6:39 p.m.

Reference frame: TEME

Reference center: EARTH

Epoch: July 4, 2025, 8:51 a.m. UTC

TLE line 0: 0 COSMOS 1371

TLE line 1: 1 13241U 82051A 25185.36892245 .00000112 00000-0 50812-4 0 9991

TLE line 2: 2 13241 74.0418 162.1429 0013438 345.0193 15.0558 14.32477138249645

Live tracking on map

Real-time ground track for satellite COSMOS 1371.

In-orbit conjunctions

A list of the most updated potential collisions computed for object COSMOS 1371.

Target Orbit TCA Probability of collision Miss distance Type
IRIDIUM 33 LEO 2025-05-04 20:02:53 0.001110008 502.0 (m) PAYLOAD
FENGYUN 1C DEB SSO 2025-04-10 09:27:58 0.0002597255 403.0 (m) DEBRIS
NOAA 16 DEB SSO 2025-03-22 08:50:16 0.0001407152 839.0 (m) DEBRIS
CZ-6A DEB LEO 2025-02-13 03:17:55 0.0001611534 469.0 (m) DEBRIS
CZ-6A DEB SSO 2025-01-03 23:30:24 0.0003680106 533.0 (m) DEBRIS

Associated space launch

Military communications satellite

COSMOS 1371 was lifted into orbit during the mission ‘Kosmos-3M | Strela-2M 28’, on board a Kosmos-3M space rocket.

The launch took place on June 1, 1982, 4:37 a.m. from 132/1 (132L).

For more information about the launch, click the button.

Launch to space Kosmos-3M | Strela-2M 28
Kosmos-3M | Strela-2M 28

Agency: N/A

Status: Launch Successful

Launch date: June 1, 1982, 4:37 a.m. UTC

Rocket: Kosmos-3M

Launch pad: 132/1 (132L)

Location: Plesetsk Cosmodrome, Russian Federation

...

Latest news about this satellite

There are no fresh news available about this satellite. Check back as we update our databases every day.


Newsletter sign-up

Weekly statistics, charts and insights to help you stay on top of the space industry.